Tracking 25648 objects as of 16-May-2022
HD Live streaming from Space Station
objects crossing your sky now

COSMOS 2251 DEB

Track COSMOS 2251 DEB now!
10-day predictions


NORAD ID: 35890
Int'l Code: 1993-036AUD
Perigee: 723.4 km
Apogee: 836.4 km
Inclination: 73.9 °
Period: 100.3 minutes
Semi major axis: 7150 km
RCS: 0.0103 m2 (small)
Launch date: June 16, 1993
Source: Commonwealth of Independent States (former USSR) (CIS)
Launch site: PLESETSK MISSILE AND SPACE COMPLEX (PKMTR)

Note: This is SATELLITE DEBRIS
aabbcc
Your satellite tracking list
Your tracking list is empty




NASA's NSSDC Master Catalog

Two Line Element Set (TLE):
1 35890U 93036AUD 22135.36000913  .00002682  00000-0  90527-3 0  9995
2 35890  73.9447 169.5790 0079004 224.8790 134.5957 14.35684287462767
Source of the keplerian elements: AFSPC